When you browse on this site, cookies collect data to enhance your experience and personalize the content and advertising you see.
Visit our Privacy Policy to learn more. By continuing to use the site, you agree to this use of cookies and data.
  • In France
  • List of Countries
  • For 7 days
  • Water Temperature
  • Weather Map
  • Weather Widgets
  • user-avatar
    Login

    Hourly Weather Lowech

    Today, 16 September, Monday

    Time Temperature Precipitation Wind Pressure Humidity
    00:00 +18°C° 0 mm 1 mps 741 mmHg 59%
    01:00 +16°C° 0 mm 1 mps 740 mmHg 61%
    02:00 +16°C° 0 mm 1 mps 740 mmHg 64%
    03:00 +16°C° 0 mm 1 mps 740 mmHg 65%
    04:00 +15°C° 0 mm 1 mps 739 mmHg 67%
    05:00 +15°C° 0 mm 1 mps 739 mmHg 68%
    06:00 +18°C° 0 mm 1 mps 739 mmHg 62%
    07:00 +20°C° 0 mm 1 mps 739 mmHg 56%
    08:00 +22°C° 0 mm 1 mps 739 mmHg 48%
    09:00 +24°C° 0 mm 1 mps 739 mmHg 42%
    10:00 +26°C° 0 mm 2 mps 738 mmHg 37%
    11:00 +28°C° 0 mm 2 mps 738 mmHg 31%
    12:00 +29°C° 0 mm 2 mps 737 mmHg 28%
    13:00 +30°C° 0 mm 3 mps 737 mmHg 25%
    14:00 +31°C° 0 mm 3 mps 736 mmHg 22%
    15:00 +31°C° 0 mm 2 mps 736 mmHg 22%
    16:00 +31°C° 0 mm 2 mps 736 mmHg 22%
    17:00 +31°C° 0 mm 2 mps 735 mmHg 22%
    18:00 +28°C° 0 mm 2 mps 735 mmHg 26%
    19:00 +25°C° 0 mm 1 mps 736 mmHg 30%
    20:00 +22°C° 0 mm 1 mps 736 mmHg 33%
    21:00 +22°C° 0 mm 1 mps 736 mmHg 34%
    22:00 +20°C° 0 mm 2 mps 736 mmHg 35%
    23:00 +20°C° 0 mm 2 mps 736 mmHg 36%

    Tomorrow, 17 September, Tuesday

    Time Temperature Precipitation Wind Pressure Humidity
    00:00 +19°C° 0 mm 2 mps 736 mmHg 37%
    01:00 +19°C° 0 mm 2 mps 736 mmHg 38%
    02:00 +19°C° 0 mm 2 mps 736 mmHg 39%
    03:00 +19°C° 0 mm 2 mps 735 mmHg 40%
    04:00 +18°C° 0 mm 2 mps 735 mmHg 42%
    05:00 +18°C° 0 mm 2 mps 735 mmHg 43%
    06:00 +20°C° 0 mm 2 mps 735 mmHg 40%
    07:00 +21°C° 0 mm 2 mps 736 mmHg 38%
    08:00 +24°C° 0 mm 2 mps 736 mmHg 35%
    09:00 +26°C° 0 mm 2 mps 736 mmHg 31%
    10:00 +28°C° 0 mm 3 mps 736 mmHg 27%
    11:00 +32°C° 0 mm 4 mps 736 mmHg 23%
    12:00 +31°C° 0 mm 3 mps 735 mmHg 21%
    13:00 +33°C° 0 mm 3 mps 735 mmHg 19%
    14:00 +34°C° 0 mm 3 mps 734 mmHg 18%
    15:00 +34°C° 0 mm 3 mps 734 mmHg 19%
    16:00 +34°C° 0 mm 2 mps 734 mmHg 21%
    17:00 +32°C° 0 mm 2 mps 733 mmHg 22%
    18:00 +30°C° 0 mm 2 mps 733 mmHg 26%
    19:00 +27°C° 0 mm 2 mps 734 mmHg 29%
    20:00 +24°C° 0 mm 1 mps 734 mmHg 33%
    21:00 +24°C° 0 mm 1 mps 734 mmHg 33%
    22:00 +23°C° 0 mm 2 mps 734 mmHg 34%
    23:00 +23°C° 0 mm 2 mps 734 mmHg 35%

    Day after tomorrow, 18 September, Wednesday

    Time Temperature Precipitation Wind Pressure Humidity
    00:00 +21°C° 0 mm 2 mps 734 mmHg 36%
    01:00 +20°C° 0 mm 2 mps 733 mmHg 37%
    02:00 +20°C° 0 mm 2 mps 733 mmHg 37%
    03:00 +19°C° 0 mm 2 mps 733 mmHg 38%
    04:00 +19°C° 0 mm 2 mps 733 mmHg 38%
    05:00 +19°C° 0 mm 2 mps 733 mmHg 39%
    06:00 +20°C° 0 mm 2 mps 733 mmHg 36%
    07:00 +23°C° 0 mm 2 mps 734 mmHg 34%
    08:00 +25°C° 0 mm 2 mps 734 mmHg 32%
    09:00 +26°C° 0 mm 3 mps 735 mmHg 32%
    10:00 +27°C° 0 mm 5 mps 735 mmHg 32%
    11:00 +28°C° 0 mm 6 mps 736 mmHg 32%
    12:00 +28°C° 0 mm 7 mps 736 mmHg 34%
    13:00 +28°C° 0 mm 7 mps 736 mmHg 36%
    14:00 +27°C° 0 mm 7 mps 736 mmHg 37%
    15:00 +26°C° 0 mm 6 mps 736 mmHg 37%
    16:00 +24°C° 0 mm 6 mps 737 mmHg 38%
    17:00 +22°C° 0 mm 5 mps 737 mmHg 38%
    18:00 +20°C° 0 mm 4 mps 737 mmHg 39%
    19:00 +18°C° 0 mm 3 mps 738 mmHg 39%
    20:00 +16°C° 0 mm 2 mps 738 mmHg 40%
    21:00 +16°C° 0 mm 2 mps 739 mmHg 39%
    22:00 +16°C° 0 mm 2 mps 739 mmHg 38%
    23:00 +15°C° 0 mm 1 mps 739 mmHg 37%

    19 September, Thursday

    Time Temperature Precipitation Wind Pressure Humidity
    00:00 +15°C° 0 mm 1 mps 740 mmHg 38%
    01:00 +14°C° 0 mm 2 mps 740 mmHg 40%
    02:00 +13°C° 0 mm 2 mps 740 mmHg 42%
    03:00 +13°C° 0 mm 2 mps 740 mmHg 42%
    04:00 +13°C° 0 mm 1 mps 740 mmHg 43%
    05:00 +13°C° 0 mm 1 mps 740 mmHg 43%
    06:00 +14°C° 0 mm 1 mps 740 mmHg 43%
    07:00 +15°C° 0 mm 1 mps 740 mmHg 43%
    08:00 +15°C° 0 mm 2 mps 740 mmHg 42%
    09:00 +16°C° 0 mm 2 mps 740 mmHg 40%
    10:00 +18°C° 0 mm 2 mps 740 mmHg 38%
    11:00 +19°C° 0 mm 2 mps 740 mmHg 35%
    12:00 +19°C° 0 mm 2 mps 740 mmHg 35%
    13:00 +19°C° 0 mm 3 mps 739 mmHg 35%
    14:00 +19°C° 0 mm 3 mps 739 mmHg 35%
    15:00 +18°C° 0 mm 3 mps 738 mmHg 41%
    16:00 +17°C° 0 mm 3 mps 738 mmHg 48%
    17:00 +16°C° 0 mm 2 mps 738 mmHg 54%
    18:00 +14°C° 0.1 mm 3 mps 738 mmHg 58%
    19:00 +14°C° 0.1 mm 3 mps 739 mmHg 63%
    20:00 +13°C° 0.1 mm 3 mps 739 mmHg 67%
    21:00 +13°C° 0.6 mm 3 mps 739 mmHg 72%
    22:00 +12°C° 0.6 mm 3 mps 739 mmHg 76%
    23:00 +12°C° 0.6 mm 3 mps 739 mmHg 81%

    20 September, Friday

    Time Temperature Precipitation Wind Pressure Humidity
    00:00 +12°C° 0.1 mm 3 mps 739 mmHg 78%
    01:00 +12°C° 0.1 mm 3 mps 739 mmHg 75%
    02:00 +12°C° 0.1 mm 3 mps 739 mmHg 72%
    03:00 +12°C° 0 mm 3 mps 739 mmHg 68%
    04:00 +11°C° 0 mm 3 mps 739 mmHg 63%
    05:00 +10°C° 0 mm 4 mps 739 mmHg 59%
    06:00 +11°C° 0 mm 4 mps 739 mmHg 54%
    07:00 +12°C° 0 mm 5 mps 739 mmHg 49%
    08:00 +13°C° 0 mm 6 mps 740 mmHg 45%
    09:00 +14°C° 0 mm 6 mps 740 mmHg 39%
    10:00 +15°C° 0 mm 6 mps 740 mmHg 33%
    11:00 +17°C° 0 mm 6 mps 740 mmHg 27%
    12:00 +19°C° 0 mm 6 mps 740 mmHg 26%
    13:00 +20°C° 0 mm 5 mps 740 mmHg 25%
    14:00 +20°C° 0 mm 5 mps 739 mmHg 23%
    15:00 +20°C° 0 mm 4 mps 739 mmHg 23%
    16:00 +20°C° 0 mm 4 mps 739 mmHg 24%
    17:00 +20°C° 0 mm 3 mps 739 mmHg 24%
    18:00 +17°C° 0 mm 2 mps 740 mmHg 28%
    19:00 +15°C° 0 mm 2 mps 740 mmHg 31%
    20:00 +12°C° 0 mm 1 mps 741 mmHg 35%
    21:00 +12°C° 0 mm 1 mps 741 mmHg 36%
    22:00 +10°C° 0 mm 2 mps 742 mmHg 37%
    23:00 +10°C° 0 mm 2 mps 742 mmHg 38%

    21 September, Saturday

    Time Temperature Precipitation Wind Pressure Humidity
    00:00 +9°C° 0 mm 2 mps 742 mmHg 42%
    01:00 +9°C° 0 mm 1 mps 742 mmHg 46%
    02:00 +9°C° 0 mm 1 mps 743 mmHg 50%
    03:00 +8°C° 0 mm 1 mps 743 mmHg 53%
    04:00 +7°C° 0 mm 1 mps 743 mmHg 56%
    05:00 +7°C° 0 mm 1 mps 743 mmHg 59%
    06:00 +8°C° 0 mm 1 mps 743 mmHg 54%
    07:00 +9°C° 0 mm 1 mps 744 mmHg 50%
    08:00 +11°C° 0 mm 1 mps 744 mmHg 45%
    09:00 +13°C° 0 mm 1 mps 744 mmHg 41%
    10:00 +15°C° 0 mm 1 mps 744 mmHg 36%
    11:00 +18°C° 0 mm 1 mps 745 mmHg 31%
    12:00 +19°C° 0 mm 1 mps 744 mmHg 29%
    13:00 +20°C° 0 mm 1 mps 744 mmHg 27%
    14:00 +21°C° 0 mm 1 mps 743 mmHg 24%
    15:00 +21°C° 0 mm 1 mps 743 mmHg 24%
    16:00 +19°C° 0 mm 2 mps 743 mmHg 24%
    17:00 +19°C° 0 mm 2 mps 743 mmHg 23%
    18:00 +18°C° 0 mm 1 mps 743 mmHg 27%
    19:00 +14°C° 0 mm 1 mps 743 mmHg 32%
    20:00 +11°C° 0 mm 1 mps 743 mmHg 36%
    21:00 +11°C° 0 mm 1 mps 744 mmHg 37%
    22:00 +11°C° 0 mm 1 mps 744 mmHg 38%
    23:00 +10°C° 0 mm 1 mps 744 mmHg 39%
    Show more